Regional Weather Roundup
Issued by NWS Goodland, KS

Home | Current Version | Previous Version | Graphics & Text | Print | Product List | Glossary On
Versions: 1 2 3 4 5 6 7 8 9 10 11 12 13 14 15 16 17 18 19 20 21 22 23 24 25 26 27 28 29 30 31 32 33 34 35 36 37 38 39 40 41 42 43 44 45 46 47 48 49 50
000
ASUS43 KGLD 261459
RWRGLD

GOODLAND FORECAST AREA HOURLY WEATHER ROUNDUP
NATIONAL WEATHER SERVICE GOODLAND KS
900 AM MDT SUN MAR 26 2017

...OFFICIAL OBSERVATIONS...

CITY           SKY/WX    TMP DP  RH WIND       PRES   REMARKS
GOODLAND KS    FOG       38  38 100 NE13      29.82R VSB 1/4
HILL CITY KS   CLOUDY    42  41  96 E7        29.88S
IMPERIAL NEB   CLOUDY    39  38  96 SE5       29.87S FOG
MCCOOK NEB     CLOUDY    41  40  96 E5        29.88F
AKRON CO       CLOUDY    41  36  82 N7        29.84R
BURLINGTON CO  SUNNY     44  41  89 E18       29.79S
LIMON CO       LGT RAIN  39  35  86 NE16      29.82R
$$

...UNOFFICIAL OBSERVATIONS...

CITY           SKY/WX    TMP DP  RH WIND       PRES   REMARKS
LENORA KS        N/A     40  32  73 CALM        N/A
NORTON KS      CLOUDY    39  36  87 CALM      29.89S
SHARON SPRINGS   N/A     38  37  95 NE12        N/A
TRENTON NEB      N/A     39  32  76 CALM        N/A
YUMA CO        CLOUDY    39  37  93 NE3       29.84R
$$



USA.gov is the U.S. government's official web portal to all federal, state and local government web resources and services.